Retour au catalogue

GEESAT 5-10

ActifCommunicationsLEO
NORAD 65559·PAYLOAD·🇨🇳 China

Lancé Sep 8, 2025 depuis Yellow Sea Launch Area

Loading…

Prochains Passages (prochaines 24 heures)

TLE

FraisSource: Space-Track

Époque: Sep 14, 2026, 14:52 UTC

1 65559U 25201K   26257.61976452  .00001172  00000-0  16487-3 0  9992
2 65559  49.9846 343.8198 0007717 268.6206  91.3848 14.84383837 55080

Suivez GEESAT 5-10 en temps réel avec AllMySat

Download on the App Store